Flag for Mexico Weather past 2 weeks in Saltillo, Coahuila, Mexico

Now
66 °F

Passing clouds.


Feels Like: 66 °F
Forecast: 60 / 79 °F
Wind: 6 mph from South

Location: Monterrey / Gen Maria

Current Time: May 24, 2015 at 3:27:29 AM

Latest Report: May 24, 2015 at 2:48 AM


Visibility: 12 mi

Pressure: 29.98 "Hg

Humidity: 94%

Dew point: 64 °F

Location of SaltilloLocation

Historic Weather in Saltillo — Graph

°F

Saltillo temperature yesterday

Maximum temperature yesterday: 88 °F (at 3:50 PM)
Minimum temperature yesterday: 66 °F (at 10:40 PM)
Average temperature yesterday: 77 °F

Past Weeks' High & Low Weather Summary

 TemperatureHumidityPressure
High93 °F (May 9, 3:47 PM)100% (May 12, 8:45 AM)30.12 "Hg (May 12, 8:45 AM)
Low66 °F (May 12, 7:42 AM)41% (May 9, 3:47 PM)29.65 "Hg (May 9, 6:49 PM)
Average77 °F79%29.91 "Hg
* Reported May 9 1:43 AM — May 24 1:40 AM, Saltillo, Weather by CustomWeather, © 2015

Note: Actual official high and low records may vary slightly from our data, if they occured in-between our weather recording intervals... More about our weather records

Advertising

Saltillo weather history for previous 24 hours

 ConditionsComfort  
Time TempWeatherWind HumidityBarometerVisibility
1:40 AM
Sun, May 24
66 °FMostly cloudy.9 mph94%29.99 "Hg10 mi
12:40 AM68 °FMostly cloudy.7 mph88%29.97 "Hg10 mi
11:40 PM
Sat, May 23
68 °FThunderstorms. Mostly cloudy.9 mph88%29.90 "Hg5 mi
10:40 PM66 °FThunderstorms. Mostly cloudy.14 mph94%29.96 "Hg5 mi
9:45 PM68 °FStrong thunderstorms. Mostly cloudy.18 mph88%29.96 "Hg3 mi
7:46 PM84 °FMostly cloudy.7 mph58%29.80 "Hg10 mi
6:49 PM86 °FCloudy.12 mph52%29.74 "Hg10 mi
5:48 PM86 °FBroken clouds.9 mph55%29.81 "Hg10 mi
4:46 PM88 °FBroken clouds.12 mph49%29.86 "Hg10 mi
3:50 PM88 °FPartly sunny.12 mph49%29.86 "Hg7 mi
2:46 PM86 °FPartly sunny.12 mph52%29.95 "Hg6 mi
12:46 PM82 °FBroken clouds.10 mph66%29.99 "Hg6 mi
11:45 AM79 °FBroken clouds.6 mph74%30.04 "Hg5 mi
10:45 AM75 °FPartly sunny.6 mph83%30.04 "Hg4 mi
9:48 AM73 °FMostly cloudy.6 mph89%30.02 "Hg4 mi
7:49 AM73 °FFog.6 mph89%30.03 "Hg3 mi
6:04 AM73 °FMostly cloudy.6 mph94%30.02 "Hg5 mi
5:43 AM73 °FMostly cloudy.8 mph94%30.01 "Hg6 mi
4:41 AM73 °FOvercast.No wind89%30.02 "Hg6 mi
3:46 AM73 °FOvercast.5 mph94%29.98 "Hg7 mi
Weather by CustomWeather, © 2015

See weather overviewHow to use our weather pages